Keyes Creek (350) Station Data

Red Flag Warning: No
Fire Weather Zone: 250
SDGE Region: North East
Lat/Lon: 33.313/-117.086

Observations

Time Wind Speed/Gust Temp(F) RH Fuel Moist Fuel Temp(F) Dewpt(F) Tmax(F) Tmin(F) Accum Precip 10-min Precip SL Press(mb)
4/30 12:00am 358 2 G 3 51° 38% - - 27° 82° 49.5° - - -
4/29 11:50pm 360 2 G 3 52° 38% - - 27° 82° 49.5° - - -
4/29 11:40pm 1 2 G 4 52° 39% - - 28° 82° 49.5° - - -
4/29 11:30pm 353 2 G 3 54° 36% - - 27° 82° 49.5° - - -
4/29 11:20pm 353 3 G 4 54° 35% - - 27° 82° 49.5° - - -
4/29 11:10pm 353 3 G 4 53° 36% - - 27° 82° 49.5° - - -
4/29 11:00pm 2 3 G 4 53° 37% - - 28° 82° 49.5° - - -
4/29 10:50pm 355 2 G 4 54° 35% - - 27° 82° 49.5° - - -
4/29 10:40pm 352 1 G 3 56° 31% - - 26° 82° 49.5° - - -
4/29 10:30pm 345 0 G 2 55° 33% - - 26° 82° 49.5° - - -
4/29 10:20pm 343 1 G 2 55° 35% - - 27° 82° 49.5° - - -
4/29 10:10pm 333 1 G 2 55° 36% - - 29° 82° 49.5° - - -
4/29 10:00pm 355 1 G 2 54° 35% - - 27° 82° 49.5° - - -
4/29 9:50pm 351 1 G 2 54° 36% - - 28° 82° 49.5° - - -
4/29 9:40pm 358 1 G 2 54° 35% - - 27° 82° 49.5° - - -
4/29 9:30pm 357 2 G 3 54° 36% - - 28° 82° 49.5° - - -
4/29 9:20pm 340 1 G 2 56° 33% - - 28° 82° 49.5° - - -
4/29 9:10pm 358 2 G 4 55° 38% - - 29° 82° 49.5° - - -
4/29 9:00pm 353 1 G 3 55° 34% - - 28° 82° 49.5° - - -
4/29 8:50pm 353 2 G 3 57° 34% - - 28° 82° 49.5° - - -
4/29 8:40pm 352 2 G 3 57° 35% - - 29° 82° 49.5° - - -
4/29 8:30pm 0 2 G 3 57° 34% - - 29° 82° 49.5° - - -
4/29 8:20pm 350 1 G 3 59° 32% - - 29° 82° 49.5° - - -
4/29 8:10pm 353 2 G 3 60° 31% - - 29° 82° 49.5° - - -
4/29 8:00pm 350 2 G 3 60° 31% - - 30° 82° 49.5° - - -
4/29 7:50pm 351 1 G 2 61° 30% - - 30° 82° 49.5° - - -
4/29 7:40pm 338 1 G 3 62° 30% - - 30° 82° 49.5° - - -
4/29 7:30pm 350 0 G 2 64° 27% - - 30° 82° 49.5° - - -
4/29 7:20pm 343 0 G 2 66° 25% - - 29° 82° 49.5° - - -
4/29 7:10pm 214 2 G 4 67° 23% - - 28° 82° 49.5° - - -
4/29 7:00pm 197 3 G 5 67° 23% - - 28° 82° 49.5° - - -
4/29 6:50pm 193 2 G 5 68° 23% - - 29° 82° 49.5° - - -
4/29 6:40pm 203 2 G 3 69° 21% - - 28° 82° 49.5° - - -
4/29 6:30pm 206 2 G 4 70° 21% - - 28° 82° 49.5° - - -
4/29 6:20pm 204 2 G 4 72° 18% - - 26° 82° 49.5° - - -
4/29 6:10pm 203 2 G 7 72° 17% - - 24° 82° 49.5° - - -
4/29 6:00pm 195 3 G 7 73° 15% - - 22° 82° 49.5° - - -
4/29 5:50pm 196 3 G 7 74° 14% - - 22° 82° 49.5° - - -
4/29 5:40pm 211 2 G 8 74° 13% - - 21° 82° 49.5° - - -
4/29 5:30pm 206 2 G 6 74° 12% - - 19° 82° 49.5° - - -
4/29 5:20pm 273 3 G 8 75° 12% - - 20° 82° 49.5° - - -
4/29 5:10pm 353 2 G 8 76° 12% - - 20° 82° 49.5° - - -
4/29 5:00pm 310 2 G 6 75° 12% - - 19° 82° 49.5° - - -
4/29 4:50pm 221 3 G 7 76° 12% - - 19° 82° 49.5° - - -
4/29 4:40pm 171 2 G 6 76° 12% - - 19° 82° 49.5° - - -
4/29 4:30pm 185 3 G 8 77° 12% - - 20° 82° 49.5° - - -
4/29 4:20pm 155 3 G 8 77° 12% - - 20° 82° 49.5° - - -
4/29 4:10pm 217 4 G 14 77° 12% - - 20° 82° 49.5° - - -
4/29 4:00pm 193 4 G 11 77° 12% - - 20° 82° 49.5° - - -
4/29 3:50pm 207 3 G 8 78° 11% - - 20° 82° 49.5° - - -
4/29 3:40pm 220 3 G 7 79° 11% - - 20° 82° 49.5° - - -
4/29 3:30pm 189 3 G 8 79° 11% - - 20° 82° 49.5° - - -
4/29 3:20pm 204 3 G 11 79° 11% - - 19° 82° 49.5° - - -
4/29 3:10pm 252 3 G 8 79° 11% - - 20° 82° 49.5° - - -
4/29 3:00pm 271 4 G 9 79° 11% - - 20° 82° 49.5° - - -
4/29 2:50pm 239 3 G 9 80° 11% - - 21° 82° 49.5° - - -
4/29 2:40pm 280 3 G 9 81° 10% - - 20° 82° 49.5° - - -
4/29 2:30pm 262 2 G 6 82° 9% - - 18° 82° 49.5° - - -
4/29 2:20pm 227 3 G 8 81° 9% - - 18° 81.7° 49.5° - - -
4/29 2:10pm 305 3 G 8 81° 8% - - 16° 81.7° 49.5° - - -
4/29 2:00pm 201 2 G 7 81° 9% - - 17° 81.5° 49.5° - - -
4/29 1:50pm 320 2 G 9 81° 8% - - 12° 81.5° 49.5° - - -
4/29 1:40pm 252 3 G 8 80° 8% - - 12° 81.5° 49.5° - - -
4/29 1:30pm 343 4 G 9 80° 7% - - 12° 81.5° 49.5° - - -
4/29 1:20pm 214 4 G 12 81° 7% - - 12° 81.5° 49.5° - - -
4/29 1:10pm 140 3 G 7 80° 7% - - 12° 81.1° 49.5° - - -
4/29 1:00pm 114 3 G 8 79° 7% - - 10° 80.2° 49.5° - - -
4/29 12:50pm 253 4 G 10 80° 8% - - 13° 80.2° 49.5° - - -
4/29 12:40pm 276 3 G 8 79° 8% - - 12° 80.2° 49.5° - - -
4/29 12:30pm 221 3 G 7 80° 8% - - 12° 80.2° 49.5° - - -
4/29 12:20pm 285 3 G 7 79° 8% - - 14° 79.6° 49.5° - - -
4/29 12:10pm 354 3 G 9 78° 8% - - 12° 78.7° 49.5° - - -
4/29 12:00pm 13 5 G 11 77° 8% - - 11° 78.5° 49.5° - - -
4/29 11:50am 252 3 G 10 78° 8% - - 13° 78.5° 49.5° - - -
4/29 11:40am 14 2 G 5 77° 9% - - 13° 78.2° 49.5° - - -
4/29 11:30am 205 3 G 8 77° 9% - - 14° 78.2° 49.5° - - -
4/29 11:20am 307 3 G 8 76° 9% - - 14° 77.1° 49.5° - - -
4/29 11:10am 306 2 G 6 77° 9% - - 14° 77° 49.5° - - -
4/29 11:00am 251 2 G 5 76° 9% - - 14° 77° 49.5° - - -
4/29 10:50am 211 2 G 6 76° 9% - - 14° 77° 49.5° - - -
4/29 10:40am 349 4 G 8 75° 9% - - 12° 75.6° 49.5° - - -
4/29 10:30am 354 4 G 10 74° 9% - - 13° 75° 49.5° - - -
4/29 10:20am 3 6 G 11 74° 10% - - 13° 74.8° 49.5° - - -
4/29 10:10am 357 4 G 11 74° 10% - - 14° 74.8° 49.5° - - -
4/29 10:00am 354 7 G 11 72° 10% - - 13° 73.6° 49.5° - - -
4/29 9:50am 355 7 G 14 72° 10% - - 14° 73.6° 49.5° - - -
4/29 9:40am 355 8 G 13 72° 11% - - 14° 73.6° 49.5° - - -
4/29 9:30am 356 7 G 13 72° 10% - - 14° 73.6° 49.5° - - -
4/29 9:20am 196 2 G 7 73° 10% - - 14° 73.6° 49.5° - - -
4/29 9:10am 178 3 G 6 71° 12% - - 16° 72° 49.5° - - -
4/29 9:00am 149 3 G 7 71° 12% - - 15° 71.3° 49.5° - - -
4/29 8:50am 35 5 G 12 70° 12% - - 15° 70.9° 49.5° - - -
4/29 8:40am 133 4 G 7 68° 16% - - 19° 69.7° 49.5° - - -
4/29 8:30am 103 2 G 5 68° 16% - - 19° 69.7° 49.5° - - -
4/29 8:20am 124 2 G 5 69° 13% - - 16° 69.7° 49.5° - - -
4/29 8:10am 23 4 G 11 69° 10% - - 11° 69.7° 49.5° - - -
4/29 8:00am 1 7 G 11 68° 11% - - 11° 68.4° 49.5° - - -
4/29 7:50am 4 5 G 10 66° 11% - - 11° 67.3° 49.5° - - -
4/29 7:40am 92 2 G 6 65° 13% - - 14° 67.3° 49.5° - - -
4/29 7:30am 358 5 G 10 66° 11% - - 67.2° 49.5° - - -
4/29 7:20am 358 5 G 10 66° 11% - - 10° 67.2° 49.5° - - -
4/29 7:10am 345 6 G 11 65° 11% - - 10° 67.2° 49.5° - - -
4/29 7:00am 355 6 G 12 64° 12% - - 10° 67.2° 49.5° - - -
4/29 6:50am 357 6 G 12 64° 11% - - 67.2° 49.5° - - -
4/29 6:40am 352 9 G 17 63° 11% - - 67.2° 49.5° - - -
4/29 6:30am 339 7 G 11 62° 12% - - 67.2° 49.5° - - -
4/29 6:20am 343 7 G 11 62° 12% - - 67.2° 49.5° - - -
4/29 6:10am 330 5 G 10 62° 12% - - 67.2° 49.5° - - -
4/29 6:00am 328 5 G 9 63° 11% - - 67.2° 49.5° - - -
4/29 5:50am 326 5 G 9 64° 11% - - 67.2° 49.5° - - -
4/29 5:40am 328 6 G 11 64° 11% - - 67.2° 49.5° - - -
4/29 5:30am 329 6 G 12 64° 11% - - 67.2° 49.5° - - -
4/29 5:20am 336 7 G 15 64° 11% - - 67.2° 49.5° - - -
4/29 5:10am 339 7 G 12 65° 11% - - 67.2° 49.5° - - -
4/29 5:00am 349 7 G 11 66° 10% - - 67.2° 49.5° - - -
4/29 4:50am 347 7 G 14 66° 10% - - 67.2° 49.5° - - -
4/29 4:40am 352 5 G 9 66° 11% - - 67.2° 49.5° - - -
4/29 4:30am 351 6 G 11 66° 10% - - 67.2° 49.5° - - -
4/29 4:20am 350 7 G 13 66° 11% - - 67.2° 49.5° - - -
4/29 4:10am 350 8 G 16 67° 10% - - 67.2° 49.5° - - -
4/29 4:00am 345 6 G 15 66° 11% - - 66.3° 49.5° - - -
4/29 3:50am 349 6 G 10 66° 11% - - 10° 66.1° 49.5° - - -
4/29 3:40am 355 6 G 14 65° 12% - - 11° 66° 49.5° - - -
4/29 3:30am 346 6 G 11 65° 12% - - 11° 66° 49.5° - - -
4/29 3:20am 347 5 G 11 66° 12% - - 12° 66° 49.5° - - -
4/29 3:10am 356 4 G 9 65° 12% - - 12° 65.7° 49.5° - - -
4/29 3:00am 354 5 G 11 64° 14% - - 14° 64.6° 49.5° - - -
4/29 2:50am 351 3 G 8 60° 18% - - 17° 62.4° 49.5° - - -
4/29 2:40am 3 2 G 5 55° 29% - - 23° 61.4° 49.5° - - -
4/29 2:30am 355 2 G 4 57° 27% - - 23° 61.4° 49.5° - - -
4/29 2:20am 353 2 G 4 58° 28% - - 25° 61.4° 49.5° - - -
4/29 2:10am 359 2 G 3 59° 27% - - 25° 61.4° 49.5° - - -
4/29 2:00am 357 2 G 3 60° 28% - - 26° 61.4° 49.5° - - -
4/29 1:50am 356 4 G 8 61° 29% - - 28° 61.4° 49.5° - - -
4/29 1:40am 3 4 G 7 61° 28% - - 28° 61.3° 49.5° - - -
4/29 1:30am 354 4 G 9 59° 30% - - 28° 61° 49.5° - - -
4/29 1:20am 332 2 G 5 53° 50% - - 34° 56.9° 49.5° - - -
4/29 1:10am 210 1 G 2 51° 62% - - 38° 52.5° 49.5° - - -
4/29 1:00am 319 1 G 3 50° 67% - - 40° 52.5° 49.5° - - -
4/29 12:50am 334 1 G 2 51° 68% - - 40° 52.5° 49.5° - - -
4/29 12:40am 350 2 G 5 51° 66% - - 40° 52.5° 49.5° - - -
4/29 12:30am 354 2 G 3 51° 66% - - 40° 52.5° 49.5° - - -
4/29 12:20am 1 2 G 4 50° 68% - - 40° 52.5° 49.5° - - -
4/29 12:10am 352 1 G 3 52° 65% - - 40° 52.5° 51.1° - - -
4/29 12:00am 6 1 G 3 52° 65% - - 40° 75.7° 48° - - -
4/28 11:50pm 357 2 G 5 52° 63% - - 40° 75.7° 48° - - -
4/28 11:40pm 336 1 G 4 52° 64% - - 40° 75.7° 48° - - -
4/28 11:30pm 8 2 G 3 51° 65% - - 40° 75.7° 48° - - -
4/28 11:20pm 337 1 G 3 52° 64% - - 41° 75.7° 48° - - -
4/28 11:10pm 360 2 G 3 52° 63% - - 40° 75.7° 48° - - -
4/28 11:00pm 321 1 G 2 54° 60% - - 40° 75.7° 48° - - -
4/28 10:50pm 7 2 G 3 54° 60% - - 40° 75.7° 48° - - -
4/28 10:40pm 359 2 G 3 53° 61% - - 40° 75.7° 48° - - -
4/28 10:30pm 354 1 G 3 54° 57% - - 39° 75.7° 48° - - -
4/28 10:20pm 353 1 G 2 54° 58% - - 39° 75.7° 48° - - -
4/28 10:10pm 2 2 G 3 53° 59% - - 39° 75.7° 48° - - -
4/28 10:00pm 345 2 G 4 54° 58% - - 40° 75.7° 48° - - -
4/28 9:50pm 3 2 G 3 54° 60% - - 40° 75.7° 48° - - -
4/28 9:40pm 342 1 G 2 54° 59% - - 40° 75.7° 48° - - -
4/28 9:30pm 2 2 G 3 54° 59% - - 40° 75.7° 48° - - -
4/28 9:20pm 353 1 G 3 55° 58% - - 40° 75.7° 48° - - -
4/28 9:10pm 358 2 G 3 55° 58% - - 41° 75.7° 48° - - -
4/28 9:00pm 349 2 G 3 55° 58% - - 41° 75.7° 48° - - -
4/28 8:50pm 358 1 G 3 55° 58% - - 41° 75.7° 48° - - -
4/28 8:40pm 343 1 G 2 57° 55% - - 41° 75.7° 48° - - -
4/28 8:30pm 333 2 G 3 57° 56% - - 41° 75.7° 48° - - -
4/28 8:20pm 356 2 G 3 57° 54% - - 41° 75.7° 48° - - -
4/28 8:10pm 342 1 G 2 57° 54% - - 41° 75.7° 48° - - -
4/28 8:00pm 358 1 G 2 58° 53% - - 41° 75.7° 48° - - -
4/28 7:50pm 342 0 G 1 59° 52% - - 41° 75.7° 48° - - -
4/28 7:40pm 350 1 G 2 60° 49% - - 41° 75.7° 48° - - -
4/28 7:30pm 300 0 G 1 62° 46% - - 41° 75.7° 48° - - -
4/28 7:20pm 174 0 G 1 62° 45% - - 41° 75.7° 48° - - -
4/28 7:10pm 204 1 G 4 63° 44% - - 41° 75.7° 48° - - -
4/28 7:00pm 183 1 G 3 64° 42% - - 41° 75.7° 48° - - -
4/28 6:50pm 195 2 G 4 65° 39% - - 40° 75.7° 48° - - -
4/28 6:40pm 189 3 G 7 66° 37% - - 39° 75.7° 48° - - -
4/28 6:30pm 194 3 G 6 66° 35% - - 38° 75.7° 48° - - -
4/28 6:20pm 192 3 G 6 67° 33% - - 37° 75.7° 48° - - -
4/28 6:10pm 180 4 G 8 68° 32% - - 37° 75.7° 48° - - -
4/28 6:00pm 191 4 G 8 68° 32% - - 37° 75.7° 48° - - -